Flag for Central African Republic Weather past 2 weeks in Bimbo, Central African Republic

Now
73 °F

More clouds than sun.


Feels Like: 70 °F
Forecast: 73 / 84 °F
Wind: No wind

Location: Bangui Airport

Current Time: Oct 1, 2014 at 9:32:39 AM

Latest Report: Oct 1, 2014 at 8:00 AM


Visibility: N/A

Pressure: 29.98 "Hg

Humidity: 94%

Dew point: 72 °F

Location of BimboLocation

Historic Weather in Bimbo — Graph

°F

Bimbo temperature yesterday

Maximum temperature yesterday: 90 °F (at 2:00 PM)
Minimum temperature yesterday: 70 °F (at 2:00 AM)
Average temperature yesterday: 78 °F

Past Weeks' High & Low Weather Summary

 TemperatureHumidityPressure
High93 °F (Sep 20, 1:00 PM)100% (Sep 16, 11:00 PM)30.01 "Hg (Sep 16, 11:00 PM)
Low70 °F (Sep 17, 5:00 AM)44% (Sep 20, 1:00 PM)29.77 "Hg (Sep 24, 3:00 PM)
Average78 °F83%29.90 "Hg
* Reported Sep 16 8:00 AM — Oct 1 8:00 AM, Bimbo, Weather by CustomWeather, © 2014

Note: Actual official high and low records may vary slightly from our data, if they occured in-between our weather recording intervals... More about our weather records

Advertising

Bimbo weather history for previous 24 hours

 ConditionsComfort  
Time TempWeatherWind HumidityBarometerVisibility
8:00 AM
Oct 1
73 °FMore clouds than sun.No wind94%29.98 "HgN/A
7:00 AM72 °FSunny.No wind100%29.98 "Hg10 mi
6:00 AM72 °FSunny.No wind100%29.95 "Hg10 mi
5:00 AM72 °FClear.No wind94%29.95 "Hg10 mi
4:00 AM72 °FClear.No wind100%29.92 "Hg10 mi
1:00 AM73 °FClear.No wind94%29.92 "Hg10 mi
12:00 AM72 °FClear.No wind100%29.95 "Hg10 mi
11:00 PM
Sep 30
73 °FClear.No wind94%29.95 "Hg10 mi
10:00 PM75 °FClear.1 mph89%29.95 "Hg10 mi
9:00 PM75 °FClear.2 mph89%29.92 "Hg10 mi
8:00 PM75 °FClear.1 mph89%29.92 "Hg10 mi
7:00 PM79 °FPassing clouds.5 mph79%29.89 "HgN/A
6:00 PM81 °FPassing clouds.2 mph74%29.86 "HgN/A
5:00 PM84 °FBroken clouds.3 mph66%29.86 "HgN/A
4:00 PM84 °FBroken clouds.2 mph66%29.83 "HgN/A
2:00 PM90 °FBroken clouds.2 mph49%29.89 "HgN/A
1:00 PM86 °FBroken clouds.1 mph55%29.92 "HgN/A
12:00 PM84 °FPartly sunny.1 mph66%29.95 "HgN/A
11:00 AM82 °FPartly sunny.1 mph70%29.95 "HgN/A
10:00 AM81 °FPartly sunny.No wind70%29.98 "HgN/A
9:00 AM79 °FPartly sunny.2 mph79%29.98 "HgN/A
Weather by CustomWeather, © 2014

See weather overviewHow to use our weather pages